Regional Weather Roundup
Issued by NWS Sterling, VA

Home | Current Version | Previous Version | Graphics & Text | Print | Product List | Glossary On
Versions: 1 2 3 4 5 6 7 8 9 10 11 12 13 14 15 16 17 18 19 20 21 22 23 24 25 26 27
000
ASUS41 KLWX 261710
RWRLWX

REGIONAL WEATHER ROUNDUP
NATIONAL WEATHER SERVICE BALTIMORE MD/WASHINGTON DC
100 PM EDT TUE JUL 26 2016

Note: "FAIR" indicates few or no clouds below 12,000 feet
with no significant weather and/or obstructions to visibility.
 TC=TEMPERATURE CELSIUS

 * =Non NWS site. Station does not report precipitation (e.g. rain,
    snow, etc.), thunder, or fog.

DCZ001-MDZ009-015-VAZ040>042-051-053>054-261800-
WASHINGTON METRO

CITY           SKY/WX    TMP DP  RH WIND       PRES   REMARKS
WASHINGTON NAT CLOUDY    93  73  52 CALM      29.96F HX 102
DULLES         PTSUNNY   89  70  53 N8        29.98F HX  94
ANDREWS AFB    CLOUDY    89  72  56 N5        29.96S HX  96
FT BELVOIR     FAIR      93  73  52 W7        29.95F HX 101
QUANTICO       PTSUNNY   91  74  57 SE6       29.96F HX 100
COLLEGE PARK*  FAIR      88  72  58 NW3       29.95F HX  94
LEESBURG*      FAIR      88  77  70 W7        29.99F HX 100
MANASSAS*      MOSUNNY   91  73  55 N8        29.97F HX 100
GAITHERSBURG*  CLOUDY    88  72  58 NW6       30.01F HX  94

$$

MDZ006>007-011-014-261800-
BALTIMORE METRO

CITY           SKY/WX    TMP DP  RH WIND       PRES   REMARKS
BWI AIRPORT    CLOUDY    93  67  42 W13       29.94F HX  96
MD SCIENCE CTR   N/A     94  66  39 MISG      29.94F HX  97
MARTIN STATE   PTSUNNY   91  79  66 SE5       29.96S HX 107
ANNAPOLIS      CLOUDY    86  76  71 SE7       29.94F HX  96
FORT MEADE*    CLOUDY    86  77  74 W5        29.98S HX  97

$$

MDZ012-015-019>023-261800-
MARYLAND EASTERN SHORE

CITY           SKY/WX    TMP DP  RH WIND       PRES   REMARKS
OCEAN CITY     SUNNY     86  76  71 SE7       29.95S HX  96
SALISBURY      MOSUNNY   90  76  63 CALM      29.94F HX 101
BAY BRIDGE AP* CLOUDY    88  73  62 CALM      29.95F HX  96
CAMBRIDGE*     CLOUDY    88  73  62 CALM      29.94F HX  96
EASTON*        PTSUNNY   91  81  70 N3        29.99F HX 110

$$

MDZ017>025-261800-
SOUTHERN MARYLAND

CITY           SKY/WX    TMP DP  RH WIND       PRES   REMARKS
PATUXENT RIVER PTSUNNY   92  72  51 N5        29.95F HX  99
ST INIGOES     MOSUNNY   92  75  57 CALM      29.94F HX 103
LEONARDTOWN*     N/A     88  73  62 MISG        N/A  HX  96

$$

MDZ003>005-261800-
NORTH CENTRAL MARYLAND

CITY           SKY/WX    TMP DP  RH WIND       PRES   REMARKS
FREDERICK*     SUNNY     90  70  51 W9        30.00S HX  95
HAGERSTOWN APT CLOUDY    88  68  51 W5        29.99F HX  91

$$

MDZ501>502-261800-
WESTERN MARYLAND

CITY           SKY/WX    TMP DP  RH WIND       PRES   REMARKS
OAKLAND*       CLOUDY    73  66  78 W6        30.15F
CUMBERLAND*    CLOUDY    86  66  51 NW5       30.05F

$$

VAZ025>031-261800-
SHENANDOAH VALLEY

CITY           SKY/WX    TMP DP  RH WIND       PRES   REMARKS
WINCHESTER*    FAIR      86  70  58 NW5       30.00F HX  90
FRONT ROYAL*   FAIR      90  72  55 NW6       30.00F HX  96
LURAY*         FAIR      91  70  49 W5        30.01F HX  97
NEW MARKET*    FAIR     N/A N/A N/A CALM      29.99F
STAUNTON*      FAIR      89  70  53 NE5       30.05S HX  94
WAYNESBORO*    FAIR      88  70  55 NE5       30.05S HX  92

$$

WVZ021-048>050-054>055-261800-
EASTERN WEST VIRGINIA PANHANDLE

CITY           SKY/WX    TMP DP  RH WIND       PRES   REMARKS
MARTINSBURG    FAIR      87  67  51 W7        29.99S HX  90
PETERSBURG*    CLOUDY    89  71  54 CALM      30.02S HX  95

$$

VAZ036>039-050-261800-
CENTRAL FOOTHILLS

CITY           SKY/WX    TMP DP  RH WIND       PRES   REMARKS
CHARLOTTESVILL PTSUNNY   96  70  42 VRB6      29.98F HX 102
CULPEPER*      FAIR      91  76  60 N5        29.98F HX 102
ORANGE*          N/A     91  72  52 CALM      30.00S HX  98
GORDONSVILLE*  FAIR      91  74  58 NE5       29.97F HX 100
WARRENTON*     FAIR      93  67  42 N8        29.98S HX  96

$$

VAZ055>057-261800-
NORTH AND CENTRAL PIEDMONT

CITY           SKY/WX    TMP DP  RH WIND       PRES   REMARKS
FREDERICKSBRG*   N/A     93  74  54 W3        29.95F HX 102
STAFFORD*      FAIR      93  71  48 W6        30.00F HX 100

$$

NCZ024-NYZ072-PAZ021-071-VAZ022-071-261800-
OTHER REGIONAL OBSERVATIONS

CITY           SKY/WX    TMP DP  RH WIND       PRES   REMARKS
NEW YORK CITY  MOSUNNY   88  65  46 MISG      29.92F HX  90
PHILADELPHIA   PTSUNNY   90  66  45 W13       29.92F HX  92
PITTSBURGH     CLOUDY    85  62  46 N7        30.05F
ROANOKE        FAIR      89  70  53 NE6       30.06F HX  94
RICHMOND       PTSUNNY   93  72  50 CALM      29.96F HX 101
RALEIGH        PTSUNNY   92  76  59 SW8       30.00F HX 104

$$

ANZ530>537-261800-
MARINE OBSERVATIONS

STATION/POSITION TIME  TEMP    WIND        PRES
                       AIR SEA DIR/SP/G
                 (UTC) (F)     (DEG/KT/KT) (MB)
THOMAS PT LIGHT  1700   85 84   90/  3/  4 1015.6F
BALT KEY BRIDGE  1648   84     110/ 10/ 12 1013.8F
COVE POINT       1648   83     360/  6/  7 1015.0F
LEWISETTA        1648   86 87  110/  3/  3 1014.1F
SOLOMONS ISLAND  1648   86 84  120/  5/  7   N/A
PINEY POINT      1648          290/  4/  4   N/A

$$





USA.gov is the U.S. government's official web portal to all federal, state and local government web resources and services.